[[{"header":{"parameterUnit":"m.s-1","parameterCategory":1,"la1":30.2991,"la2":30.254,"lo1":-89.0895,"lo2":-89.0444,"dy":0.0017,"dx":0.0017,"nx":28,"ny":28,"refTime":"2025-12-24T09:00:00:Z","depth":0,"parameterNumber":2,"parameterNumberName":"U-component_of_WINDS"},"data":[0,0,0,0,0,0,0,0,0,0,0,0,0,0,0,0,0,0,0,0,0,0,0,0,0,0,0,0,0,0,0,0,0,0,0,0,0,0,0,0,0,0,0,0,0,0,0,0,0,0,0,0,0,0,0,0,0,0,0.417,0.4171,0,0.4233,0.4234,0.4235,0.4274,0.4274,0.4274,0.4274,0.4339,0.434,0.4342,0,0,0,0,0,0,0,0,0,0,0,0,0,0.4081,0.4082,0.417,0.4171,0.4171,0.4233,0.4234,0.4235,0.4274,0.4274,0.4274,0.4274,0.4338,0.434,0.4342,0,0,0,0,0,0,0,0,0,0,0,0,0,0.4129,0.4083,0.417,0.4198,0.4201,0.4233,0.4234,0.4235,0.4274,0.4274,0.4274,0.4275,0.4338,0.434,0.4342,0.435,0,0,0.4349,0.435,0,0,0,0,0,0,0,0,0.4127,0.4133,0.4193,0.4196,0.42,0.4246,0.4227,0.4274,0.4274,0.4246,0.4274,0.4275,0.4308,0.4312,0.4324,0.4353,0.4356,0.4349,0.4351,0.4352,0.4352,0,0,0,0,0,0,0,0.4123,0.413,0.4195,0.4194,0.4198,0.4207,0.4215,0.4236,0.4274,0.4249,0.4252,0.4259,0.431,0.4321,0.4325,0.4357,0.4349,0.4351,0.4353,0.4354,0.4395,0.4395,0,0,0,0,0,0,0.4116,0.4127,0.4193,0.4197,0.4163,0.4209,0.4217,0.4231,0.4274,0.4281,0.4258,0.426,0.4317,0.4323,0.4328,0.4339,0.4352,0.4354,0.4355,0.4396,0.4395,0.4395,0,0,0,0,0,0,0.4113,0.4121,0.419,0.4163,0.4172,0.421,0.4225,0.4232,0.4244,0.4282,0.4289,0.4263,0.4318,0.4325,0.4344,0.4342,0.4355,0.4357,0.4396,0.4395,0.4395,0.4363,0,0,0,0,0,0,0.4111,0.412,0.4124,0.4163,0.4174,0.4206,0.4225,0.4233,0.4248,0.4251,0.4288,0.4295,0.4319,0.4341,0.4346,0.4346,0.4359,0.4396,0.4396,0.4395,0.4364,0.4361,0.4359,0,0,0,0,0,0.4107,0.4112,0.4124,0.4132,0.4179,0.4206,0.4212,0.4239,0.4247,0.4251,0.4275,0.4294,0.4341,0.4342,0.4349,0.4349,0.4396,0.4396,0.4395,0.4365,0.4362,0.4359,0,0,0,0,0,0,0.4072,0.4118,0.4131,0.4149,0.4173,0.4212,0.4218,0.4235,0.4257,0.4259,0.4292,0.43,0.4316,0.4335,0.4335,0.4358,0.4371,0.4372,0.4346,0.4343,0.434,0.4335,0.4361,0,0,0,0,0,0.4066,0.4084,0.4123,0.4135,0.4147,0.418,0.4193,0.4212,0.4238,0.4248,0.4274,0.4299,0.4319,0.4332,0.4353,0.4367,0.4375,0.437,0.4367,0.4365,0.4365,0.4373,0.4371,0.4393,0.4393,0.4393,0,0,0.4055,0.4082,0.4091,0.4129,0.415,0.4167,0.4188,0.4206,0.4219,0.4251,0.4271,0.429,0.432,0.4336,0.4345,0.4352,0.4361,0.4364,0.4362,0.4364,0.4372,0.437,0.4368,0.4392,0.4393,0.4393,0,0,0.4042,0.4065,0.4077,0.4097,0.4129,0.4151,0.4154,0.419,0.4204,0.4225,0.4249,0.4265,0.43,0.432,0.4334,0.4328,0.4345,0.4334,0.432,0.4327,0.4325,0.4324,0.432,0.4319,0.4334,0.4334,0.4334,0,0.4024,0.4051,0.4081,0.4097,0.4112,0.4142,0.4154,0.4172,0.4209,0.4218,0.4226,0.427,0.4292,0.4313,0.4311,0.4322,0.4326,0.433,0.4323,0.4322,0.4321,0.4318,0.4317,0.4332,0.4333,0.4333,0.4333,0,0.4026,0.4045,0.4051,0.4085,0.4101,0.4115,0.4146,0.4159,0.4176,0.4197,0.4217,0.4244,0.4271,0.4277,0.4295,0.43,0.4304,0.4317,0.433,0.4317,0.4315,0.4314,0.433,0.4331,0.4331,0.4332,0,0,0.3994,0.4044,0.4045,0.4061,0.4097,0.4112,0.4127,0.4153,0.4163,0.4187,0.4199,0.4228,0.424,0.4256,0.4276,0.4282,0.4274,0.4295,0.4296,0.4289,0.4281,0.427,0.4269,0.4286,0.4286,0.4286,0.4278,0,0.3986,0.4014,0.4041,0.4059,0.4076,0.4104,0.4117,0.414,0.416,0.4177,0.4199,0.4218,0.4233,0.4243,0.4251,0.4274,0.4273,0.4275,0.4297,0.4298,0.4288,0.4268,0.4257,0.4248,0.4278,0.4278,0.4278,0,0.3981,0.4003,0.4023,0.4057,0.4065,0.4076,0.4102,0.4118,0.4145,0.4159,0.4177,0.4197,0.4214,0.4225,0.4247,0.4248,0.4259,0.4271,0.4272,0.4274,0.4286,0.4269,0.4246,0.4244,0.4277,0.4277,0.4277,0,0.3953,0.3989,0.4005,0.4018,0.4058,0.4065,0.4082,0.4109,0.4123,0.4145,0.4154,0.4178,0.4191,0.4208,0.4235,0.4241,0.4254,0.4268,0.4265,0.4264,0.4266,0.4265,0.4243,0.4274,0.4274,0.4274,0.4274,0,0.3942,0.3952,0.3993,0.4003,0.4016,0.4046,0.4058,0.4077,0.4101,0.4115,0.4141,0.4153,0.4187,0.4203,0.4224,0.4239,0.4245,0.4256,0.4261,0.4253,0.4251,0.426,0.4261,0.4274,0.4274,0.4274,0.4274,0,0.3913,0.3941,0.3961,0.3997,0.4006,0.4014,0.4045,0.4055,0.4077,0.4093,0.4099,0.4132,0.4152,0.418,0.4209,0.4223,0.4235,0.4243,0.4225,0.4228,0.4223,0.4223,0.4206,0.4205,0.4236,0.4236,0.4236,0,0.3903,0.3912,0.3949,0.3961,0.3977,0.3994,0.4008,0.4038,0.4052,0.4082,0.4089,0.4111,0.413,0.4161,0.4187,0.4209,0.4218,0.421,0.4222,0.4213,0.4217,0.4215,0.4216,0.4207,0.4207,0.4207,0.4206,0,0.3882,0.3896,0.3915,0.3939,0.3954,0.3975,0.3996,0.4003,0.4038,0.4051,0.4072,0.4087,0.4116,0.4138,0.4163,0.418,0.4198,0.4203,0.4203,0.4194,0.4183,0.4188,0.4217,0.4203,0.4203,0.4203,0.4204,0.4204,0.3862,0.3871,0.3899,0.3919,0.3938,0.3957,0.3968,0.3991,0.4009,0.4035,0.4051,0.4071,0.4097,0.4133,0.4149,0.4164,0.4172,0.4173,0.4173,0.4172,0.4169,0.4181,0.4169,0.4169,0.4169,0.417,0.417,0,0.3842,0.3861,0.3879,0.3908,0.3924,0.394,0.3964,0.3976,0.3993,0.4016,0.4034,0.4057,0.4078,0.4106,0.4128,0.4135,0.4144,0.414,0.4139,0.4142,0.4161,0.4158,0.4132,0.4132,0.4132,0.4132,0.4132,0.4132,0.3833,0.3849,0.3865,0.389,0.3909,0.3928,0.394,0.3958,0.3976,0.4001,0.4018,0.4036,0.406,0.4085,0.4104,0.4111,0.4118,0.4111,0.4121,0.4138,0.4141,0.4144,0.4142,0.4112,0.4112,0.4101,0.41,0.41]},{"header":{"parameterUnit":"m.s-1","parameterCategory":1,"la1":30.2991,"la2":30.254,"lo1":-89.0895,"lo2":-89.0444,"dy":0.0017,"dx":0.0017,"nx":28,"ny":28,"refTime":"2025-12-24T09:00:00:Z","depth":0,"parameterNumber":3,"parameterNumberName":"V-component_of_WINDS"},"data":[0,0,0,0,0,0,0,0,0,0,0,0,0,0,0,0,0,0,0,0,0,0,0,0,0,0,0,0,0,0,0,0,0,0,0,0,0,0,0,0,0,0,0,0,0,0,0,0,0,0,0,0,0,0,0,0,0,0,0.9333,0.9332,0,0.9305,0.9305,0.9304,0.9323,0.9324,0.9325,0.9326,0.9294,0.9292,0.929,0,0,0,0,0,0,0,0,0,0,0,0,0,0.9398,0.9397,0.9333,0.9332,0.9332,0.9305,0.9305,0.9304,0.9323,0.9324,0.9325,0.9326,0.9294,0.9292,0.929,0,0,0,0,0,0,0,0,0,0,0,0,0,0.937,0.9396,0.9333,0.9338,0.9339,0.9305,0.9305,0.9304,0.9323,0.9324,0.9326,0.9327,0.9295,0.9292,0.929,0.9248,0,0,0.9282,0.9281,0,0,0,0,0,0,0,0,0.9371,0.9367,0.9338,0.9338,0.9338,0.9319,0.9316,0.9285,0.9323,0.9329,0.9326,0.9328,0.9301,0.9298,0.929,0.9247,0.9245,0.9282,0.9281,0.9279,0.9279,0,0,0,0,0,0,0,0.9373,0.9369,0.9322,0.9337,0.9337,0.9341,0.9338,0.931,0.9308,0.9328,0.933,0.9326,0.9301,0.9292,0.9289,0.9245,0.9282,0.928,0.9278,0.9277,0.9166,0.9165,0,0,0,0,0,0,0.9375,0.937,0.9322,0.9321,0.9358,0.9339,0.9336,0.9324,0.9308,0.9307,0.9325,0.9327,0.9296,0.9292,0.9288,0.9238,0.928,0.9277,0.9276,0.9168,0.9166,0.9164,0,0,0,0,0,0,0.9377,0.9371,0.9324,0.9346,0.934,0.9336,0.9323,0.9323,0.9314,0.9306,0.9305,0.9317,0.9297,0.9292,0.9258,0.9237,0.9276,0.9274,0.9169,0.9167,0.9165,0.9137,0,0,0,0,0,0,0.9378,0.9371,0.9356,0.9345,0.9339,0.9295,0.9321,0.9321,0.931,0.9312,0.9298,0.9296,0.9297,0.9262,0.9256,0.9234,0.9272,0.9171,0.9168,0.9166,0.914,0.9135,0.913,0,0,0,0,0,0.9381,0.9349,0.9355,0.9349,0.932,0.9294,0.929,0.9293,0.9308,0.9292,0.9287,0.9297,0.9241,0.9258,0.9252,0.9229,0.9172,0.9169,0.9166,0.9143,0.9136,0.913,0,0,0,0,0,0,0.9355,0.9347,0.9355,0.9318,0.9307,0.9297,0.9277,0.9286,0.9268,0.9271,0.9274,0.9271,0.9236,0.9229,0.9249,0.9188,0.9209,0.9204,0.9193,0.9187,0.9182,0.9183,0.927,0,0,0,0,0,0.9346,0.9327,0.932,0.9289,0.9283,0.9281,0.927,0.9273,0.9261,0.9256,0.9248,0.9235,0.9214,0.92,0.9181,0.914,0.9136,0.9121,0.9116,0.9112,0.9107,0.9084,0.9077,0.9154,0.9154,0.9154,0,0,0.9325,0.9319,0.9306,0.9283,0.9275,0.9254,0.9277,0.9253,0.9237,0.9252,0.922,0.9214,0.9199,0.9162,0.9145,0.9155,0.9085,0.9107,0.9104,0.9102,0.908,0.9073,0.9066,0.9151,0.9152,0.9152,0,0,0.9277,0.927,0.9243,0.9235,0.9222,0.9222,0.9215,0.9205,0.9202,0.917,0.9181,0.9161,0.9126,0.9115,0.9104,0.9053,0.906,0.9046,0.9018,0.8996,0.899,0.8985,0.8965,0.8959,0.9042,0.9042,0.9042,0,0.9252,0.9222,0.9228,0.9204,0.9193,0.9207,0.9179,0.917,0.9151,0.9143,0.9156,0.9111,0.9102,0.9062,0.905,0.9042,0.9033,0.9047,0.8991,0.8986,0.8981,0.8962,0.8955,0.904,0.904,0.904,0.9041,0,0.9192,0.9171,0.9151,0.9134,0.9121,0.9095,0.9096,0.9082,0.9087,0.9084,0.9052,0.9042,0.9021,0.9012,0.9015,0.8972,0.8979,0.8991,0.9012,0.8971,0.8954,0.8947,0.9038,0.9038,0.9039,0.9039,0,0,0.9126,0.9114,0.9106,0.9098,0.9086,0.9069,0.9044,0.9024,0.9012,0.8999,0.8976,0.8947,0.8958,0.8946,0.8949,0.893,0.8888,0.8944,0.8944,0.8933,0.8839,0.8829,0.8821,0.8894,0.8893,0.8892,0.884,0,0.9076,0.9033,0.9038,0.8996,0.8976,0.899,0.8967,0.8957,0.8954,0.8936,0.8932,0.8911,0.8928,0.8921,0.8903,0.8897,0.8869,0.8901,0.8872,0.8871,0.8874,0.8812,0.8802,0.8753,0.8833,0.8832,0.8832,0,0.9012,0.8998,0.8955,0.8946,0.8938,0.8918,0.89,0.8883,0.8871,0.8871,0.8858,0.8864,0.8837,0.886,0.8823,0.8844,0.8833,0.8828,0.8827,0.8823,0.8848,0.8806,0.8738,0.873,0.8821,0.8822,0.8823,0,0.8967,0.8937,0.8908,0.8901,0.889,0.8875,0.887,0.8859,0.8847,0.8832,0.8824,0.8805,0.8794,0.8779,0.878,0.8796,0.8741,0.8764,0.8739,0.8739,0.8725,0.8726,0.8653,0.872,0.872,0.872,0.872,0,0.891,0.8883,0.8887,0.8869,0.8838,0.8844,0.8813,0.8809,0.88,0.878,0.879,0.8771,0.8774,0.8754,0.8754,0.8723,0.8718,0.8716,0.8716,0.8714,0.8714,0.8705,0.8708,0.8718,0.8719,0.8719,0.8719,0,0.8854,0.8856,0.8824,0.8817,0.8815,0.8792,0.8786,0.8768,0.8767,0.8741,0.8735,0.8733,0.871,0.871,0.8684,0.8684,0.8645,0.8649,0.8649,0.865,0.8624,0.8626,0.8542,0.8531,0.8606,0.8605,0.8605,0,0.8817,0.8797,0.8788,0.8776,0.877,0.8751,0.8739,0.8744,0.8731,0.8716,0.87,0.8679,0.8662,0.8625,0.862,0.86,0.8603,0.8575,0.86,0.8599,0.8601,0.8602,0.86,0.857,0.8569,0.8569,0.8568,0,0.8751,0.8754,0.8737,0.8721,0.8707,0.8694,0.8683,0.8672,0.8675,0.866,0.8638,0.8625,0.86,0.8578,0.8559,0.8552,0.856,0.8561,0.8553,0.8551,0.8551,0.855,0.8635,0.8562,0.8563,0.8563,0.8563,0.8564,0.8703,0.8685,0.8677,0.8658,0.865,0.8639,0.8622,0.8619,0.8601,0.8581,0.8585,0.856,0.8548,0.8524,0.8515,0.8495,0.8504,0.8494,0.8491,0.8489,0.8485,0.8556,0.8491,0.8492,0.8492,0.8492,0.8492,0,0.8637,0.8632,0.8615,0.8599,0.8584,0.8595,0.8583,0.8569,0.8548,0.8537,0.8521,0.8495,0.8474,0.8468,0.8448,0.8433,0.8436,0.8427,0.8428,0.8426,0.8479,0.8486,0.8425,0.8425,0.8425,0.8425,0.8425,0.8425,0.86,0.8571,0.8572,0.8539,0.8534,0.8511,0.8503,0.8492,0.8484,0.8455,0.8439,0.8436,0.8426,0.8406,0.8387,0.8386,0.8377,0.8366,0.8366,0.8415,0.8422,0.8428,0.8436,0.8365,0.8365,0.8315,0.8315,0.8314]}]]